Wind_Speed
38 37 36 35 35 34 33 32 34 38 42 44 42 39 37 36 35 34 32 31 30 28 25 23 21 19 18 17 16 14 13 11 11 10 9 8 7 6 7 6 6 7 8 9 10 10 10 11 11 11 11 12 12 12 13 13 13 13 14 14 15 16 17 18 21 24 23 21 22 22 23 25 25 25 27 29 29 31 32 33 34 36 37 38 38
38 37 36 36 35 34 33 33 36 40 44 44 42 39 38 37 36 35 33 32 30 28 26 24 22 20 19 18 17 15 14 14 13 12 11 10 8 8 7 6 6 8 9 10 10 11 11 11 12 12 12 13 13 14 14 14 15 15 15 16 16 17 18 19 21 25 26 25 24 23 24 25 26 27 28 30 31 33 34 35 36 36 36 37 38
39 37 37 36 36 35 34 35 38 42 45 45 43 41 39 38 37 35 34 32 30 28 26 24 23 22 21 20 18 17 16 16 15 14 13 12 10 9 8 7 7 9 10 11 11 11 11 12 12 13 13 14 14 15 16 16 16 16 17 17 18 18 19 20 22 25 27 28 26 26 26 27 28 28 29 30 32 34 35 36 37 37 37 37 38
39 39 38 37 36 35 35 37 40 44 46 46 44 42 40 39 38 36 35 33 31 29 27 26 24 23 22 21 19 19 18 18 17 16 15 13 11 10 8 7 8 9 10 11 11 12 12 12 12 13 14 15 15 16 17 17 17 18 19 19 20 20 20 21 23 25 27 29 29 28 28 29 29 30 30 31 33 34 36 37 38 38 38 38 39
40 40 39 38 38 37 37 39 42 45 47 47 45 43 42 40 39 37 36 34 32 30 29 28 27 25 24 22 20 20 20 19 18 17 15 13 12 11 10 9 9 10 11 11 12 12 12 12 13 13 14 15 16 17 18 18 19 19 20 21 22 22 22 23 24 25 27 29 30 30 29 30 30 30 31 33 34 35 36 37 39 39 39 39 39
42 41 41 41 40 39 39 41 44 46 48 48 46 44 43 41 40 38 37 35 33 32 30 29 28 27 25 22 22 22 21 20 19 18 16 14 13 12 11 10 10 11 12 12 12 13 13 13 13 14 14 15 16 17 18 19 20 21 22 23 23 24 24 25 25 26 28 29 30 31 31 31 32 31 31 33 35 36 37 38 39 39 39 39 40
43 43 43 43 42 40 40 42 45 47 48 48 46 45 44 42 41 39 37 36 34 33 32 31 29 27 25 24 24 24 23 22 21 19 17 15 14 13 13 12 11 12 12 12 13 13 13 14 14 14 14 15 17 18 19 20 22 23 23 24 25 26 26 26 27 27 29 30 31 31 32 32 32 32 32 33 35 36 37 38 40 40 39 39 40
44 45 45 45 44 43 41 42 45 47 48 49 47 46 45 43 42 40 38 36 35 34 33 32 30 29 27 26 26 26 25 24 22 21 18 16 15 15 15 14 13 13 13 13 14 14 14 15 15 15 15 16 17 18 20 21 23 24 25 25 26 27 27 28 28 28 29 31 31 31 32 32 32 32 33 34 35 35 35 36 38 40 39 39 40
45 46 46 46 46 44 42 43 44 46 49 50 49 48 46 45 43 41 39 37 36 35 35 33 32 30 29 28 28 28 27 25 23 21 18 17 17 17 16 16 14 14 14 14 14 15 16 16 16 16 17 17 18 19 20 22 23 24 25 26 27 28 28 29 29 29 30 31 32 32 32 33 32 33 33 34 34 35 35 35 36 38 38 39 39
46 47 47 47 46 44 43 43 45 47 49 51 51 49 47 46 44 42 40 39 38 37 36 35 34 32 30 30 30 29 27 25 23 21 19 19 18 19 19 18 17 15 15 14 15 15 16 17 17 17 18 18 19 20 21 22 24 25 26 27 28 29 29 30 29 29 30 32 32 32 33 34 33 32 33 33 33 34 35 35 36 37 37 39 40
46 47 47 46 45 44 44 44 45 47 49 51 52 50 48 47 45 43 42 41 40 39 38 37 35 33 32 31 31 30 27 25 23 21 21 21 21 21 22 21 19 17 16 15 15 16 17 18 18 18 19 20 20 20 21 23 24 25 26 27 29 29 30 30 30 30 31 32 33 33 33 34 33 31 31 32 32 33 34 34 34 35 36 37 40
46 46 46 45 45 44 44 44 45 46 48 51 53 51 49 48 46 44 44 43 42 42 40 39 37 34 33 33 32 30 27 25 23 23 23 23 24 24 24 24 22 19 18 17 17 17 18 18 19 20 20 21 21 21 22 23 24 26 27 28 30 31 31 31 31 31 32 33 34 34 33 33 33 32 30 30 31 33 34 33 32 33 33 34 37
46 46 45 44 44 43 43 43 44 45 48 51 53 52 49 48 47 46 46 45 44 43 41 40 38 36 35 34 33 31 28 26 25 25 26 26 26 26 27 26 24 22 20 19 19 20 20 19 20 21 21 21 22 22 23 23 24 25 27 29 30 31 32 32 32 32 33 34 35 34 33 32 32 31 28 28 30 33 34 33 32 32 33 33 36
44 45 44 43 43 43 42 43 43 45 47 50 52 51 49 49 49 48 48 47 46 44 42 41 38 37 36 35 33 31 29 28 27 27 28 29 29 29 29 28 26 24 23 22 22 23 22 21 22 23 23 23 23 24 24 24 24 26 27 29 30 31 32 32 32 33 34 34 34 34 34 32 32 31 27 26 29 32 33 33 32 32 33 34 35
42 43 43 43 43 43 43 43 43 44 46 48 50 50 49 49 50 50 49 48 46 44 42 41 39 38 37 35 33 32 31 30 29 30 31 32 32 32 30 29 28 27 26 25 25 25 25 24 24 25 25 25 25 26 26 25 26 27 28 29 30 32 33 33 33 33 34 34 33 33 34 33 31 29 26 26 29 31 32 32 31 32 34 35 35
39 40 41 42 42 43 42 42 43 43 44 45 47 48 49 50 52 52 50 48 46 44 42 41 39 38 37 36 35 34 33 32 32 33 34 34 34 33 32 31 31 30 29 28 27 28 27 27 27 27 27 27 27 27 27 27 28 29 30 30 31 32 33 33 33 34 34 34 33 33 33 31 29 27 24 25 28 30 31 32 30 30 33 35 35
35 37 39 40 41 41 42 42 42 42 42 44 45 47 49 51 52 51 50 48 46 44 43 42 40 39 38 37 37 37 36 35 35 35 36 36 35 35 34 34 33 32 31 30 30 30 30 30 30 30 30 29 29 29 28 29 31 32 32 32 32 33 33 33 33 34 34 34 34 32 30 28 28 27 25 26 27 28 31 32 29 29 31 34 34
30 32 35 36 38 39 40 40 40 40 41 42 44 46 48 50 51 50 48 47 45 44 43 42 41 40 39 39 39 39 38 38 37 37 38 37 37 37 36 36 35 35 34 33 32 32 32 32 32 32 32 32 31 31 30 30 32 34 34 34 34 34 34 33 33 33 34 34 34 32 30 30 30 27 25 26 26 27 29 30 28 28 30 32 33
23 26 28 30 32 34 36 36 37 38 39 41 42 44 46 48 48 48 46 45 43 43 43 42 41 40 40 41 42 41 41 40 39 38 39 38 38 38 38 38 38 38 38 37 36 35 36 35 34 34 34 34 34 33 32 32 34 35 36 36 37 37 35 34 33 34 34 35 35 34 32 31 28 25 25 26 25 26 27 28 27 27 29 30 31
17 18 20 23 26 29 30 32 33 34 36 37 39 40 42 44 45 44 43 42 42 42 41 41 42 43 44 44 44 44 43 42 40 40 40 40 40 40 40 40 41 41 41 41 40 40 40 39 37 36 36 37 37 36 35 34 35 36 37 38 39 38 35 34 35 35 35 36 35 34 34 31 27 24 25 26 25 25 26 26 26 26 27 30 30
11 13 15 18 20 22 24 26 27 29 30 32 34 36 37 38 39 39 39 39 40 41 42 43 45 46 46 46 46 45 44 44 42 42 42 42 41 42 43 44 44 44 44 44 44 44 44 43 42 40 38 38 38 38 38 38 37 38 40 40 40 37 35 36 37 36 36 36 35 35 35 32 26 24 26 26 25 24 25 25 26 25 26 29 30
8 9 10 12 14 15 17 18 20 22 24 26 28 29 31 32 34 35 36 38 40 42 44 45 46 46 46 46 46 45 45 45 44 44 44 44 43 43 45 46 46 46 47 47 48 49 48 47 46 44 42 41 40 39 40 40 40 41 42 41 40 38 37 37 37 36 36 36 35 36 36 33 28 26 27 27 25 25 25 25 25 25 26 28 29
8 8 9 9 10 11 12 13 15 17 19 20 22 24 25 27 29 31 33 35 37 40 41 42 43 44 44 44 43 43 43 44 44 45 45 46 46 46 47 47 48 49 50 51 52 52 52 51 50 49 47 45 44 42 41 42 43 44 44 42 41 39 37 36 36 35 35 36 37 38 37 34 30 29 28 27 26 25 25 25 25 26 27 28 28
10 10 9 9 9 10 10 11 13 14 15 16 18 19 20 22 24 26 28 30 32 34 35 36 37 38 38 38 38 38 39 40 41 43 44 45 46 47 48 49 49 51 53 54 55 55 55 54 54 53 52 50 49 47 45 44 44 45 45 43 41 39 36 36 36 36 36 38 40 40 37 34 31 31 30 28 27 26 25 25 26 26 27 29 29
10 9 8 8 8 8 8 9 10 11 11 13 14 15 17 19 20 22 24 25 27 28 29 30 31 32 33 33 33 34 35 36 37 39 40 42 43 45 47 48 49 51 54 55 56 56 56 56 56 56 55 54 53 51 49 48 46 46 45 43 41 39 38 37 37 37 39 40 41 39 37 35 33 32 31 30 28 27 26 26 26 26 27 29 30
9 8 8 7 7 8 8 8 8 9 10 11 12 13 14 16 17 19 20 21 23 23 24 25 27 28 29 30 30 31 32 34 35 36 37 39 40 41 42 44 45 47 49 51 53 54 55 56 57 57 56 56 55 54 53 50 47 45 44 42 40 40 39 38 38 39 40 41 40 39 38 37 35 33 31 30 29 27 26 27 28 27 27 29 31
8 8 8 7 7 7 7 8 8 9 9 10 10 11 12 13 14 15 16 17 19 20 21 23 24 26 27 28 28 30 31 33 34 35 36 37 38 38 39 39 39 39 41 42 43 45 47 49 51 52 53 54 55 54 53 51 49 46 43 41 38 37 37 37 38 39 40 41 40 40 39 38 37 34 31 30 30 28 27 28 29 29 28 29 32
8 8 7 7 7 7 7 7 8 8 8 8 9 9 10 12 13 14 15 17 18 20 22 23 25 26 27 28 30 31 32 33 34 35 36 37 38 39 39 39 39 38 38 38 38 38 39 41 43 45 47 49 51 52 51 50 48 46 43 40 37 35 35 35 37 39 40 40 40 40 39 38 38 35 32 31 31 28 27 28 29 29 29 30 32
7 7 7 7 7 7 7 7 8 8 8 9 9 11 12 13 15 16 17 19 21 22 24 25 26 27 29 31 32 33 34 35 35 36 37 38 39 40 40 40 39 39 37 35 34 35 37 37 38 40 43 45 47 48 48 47 46 45 43 41 38 36 35 35 37 38 38 38 38 39 39 39 38 36 34 33 31 28 27 28 29 29 29 30 32
7 6 7 7 7 7 8 8 9 9 10 11 12 13 15 16 17 19 20 21 22 24 25 27 28 29 30 31 32 34 35 36 36 37 38 39 40 40 41 40 39 38 34 30 29 31 33 34 35 36 38 40 43 45 45 44 44 44 42 40 39 38 37 37 38 37 36 36 37 38 38 38 38 36 34 33 31 29 27 28 28 29 30 30 32
7 7 8 8 9 10 10 11 12 12 13 13 14 15 17 18 20 21 21 22 23 24 26 27 28 29 30 31 32 33 34 34 35 36 37 37 37 38 37 36 35 33 29 25 26 29 30 30 32 33 34 36 39 41 42 42 42 43 42 40 39 39 39 39 39 37 37 37 38 38 38 38 36 34 32 32 31 29 28 28 28 29 29 30 32
8 9 10 11 11 12 13 13 13 14 14 15 16 17 18 19 20 21 23 23 24 24 25 26 27 28 29 30 31 32 33 33 34 34 34 34 34 34 33 32 30 27 24 21 24 28 29 28 28 29 30 32 35 36 37 38 39 39 39 38 37 36 35 34 33 33 33 33 33 34 35 34 33 32 31 31 31 31 30 29 28 28 29 29 30
11 11 12 12 12 13 13 13 14 15 16 17 18 19 20 20 21 22 23 24 24 25 25 26 27 28 29 29 30 31 32 32 32 32 33 33 32 32 32 29 26 23 19 18 22 26 28 28 28 27 27 29 30 31 32 33 33 33 34 34 33 31 30 29 29 30 31 31 30 31 32 32 32 32 32 31 31 31 31 30 28 28 29 29 30
11 11 12 12 12 13 14 14 15 16 17 18 19 19 20 21 21 22 22 23 24 25 26 26 27 27 27 28 28 28 29 29 30 30 30 30 30 30 30 28 25 21 17 17 19 22 25 27 29 29 29 29 30 30 31 32 32 33 33 32 31 30 29 29 30 32 33 32 31 30 31 32 33 33 33 32 32 33 32 31 29 28 28 29 29
10 11 11 12 13 13 14 15 16 17 17 18 19 19 20 21 22 22 23 23 23 23 24 24 25 26 27 26 25 25 25 25 26 27 27 27 27 27 26 26 25 22 20 18 20 22 23 25 25 25 25 25 25 25 27 28 29 30 31 32 31 31 30 30 31 33 33 33 32 31 31 32 33 33 33 33 33 33 32 30 29 28 28 28 29
10 10 11 12 12 13 14 15 15 16 17 18 19 19 20 21 22 22 23 23 23 23 22 21 21 22 23 23 22 22 22 22 22 23 24 25 25 24 24 24 24 24 23 22 22 23 24 26 27 28 29 29 28 28 28 28 28 28 28 29 29 29 29 29 29 30 31 31 31 31 31 33 32 31 32 32 33 32 31 29 28 27 27 28 29
10 10 11 12 13 14 15 15 16 17 18 18 19 19 20 20 20 20 20 20 20 20 20 19 19 19 19 20 20 21 21 21 22 22 22 23 22 22 22 23 25 25 25 26 26 26 27 28 29 31 32 34 34 34 34 34 33 33 32 31 30 29 28 27 27 28 30 30 30 30 31 32 31 29 29 31 32 31 29 27 27 27 27 27 28
10 11 12 13 14 15 16 17 18 18 18 18 18 18 18 17 17 16 16 17 18 19 20 20 19 19 19 19 20 21 21 21 22 22 22 22 22 21 21 22 24 26 27 28 30 31 31 32 33 34 35 36 37 38 39 39 39 38 38 37 35 34 32 30 30 30 30 29 29 30 31 30 28 27 27 29 30 30 28 26 26 27 27 27 27
11 13 14 15 15 16 16 17 17 17 17 17 16 15 15 14 14 16 18 20 20 21 20 20 19 19 19 18 20 21 22 21 21 21 21 21 21 21 22 22 23 25 27 28 30 31 32 33 34 35 36 37 38 38 39 40 40 40 40 39 39 38 36 34 32 31 30 28 28 29 28 27 26 26 27 28 29 28 27 26 26 26 27 27 27
12 13 14 14 15 15 15 15 15 15 14 14 13 13 13 15 17 19 20 21 21 20 20 19 19 19 19 19 21 22 22 21 20 20 20 20 21 21 22 23 24 25 25 27 28 29 30 31 31 32 33 34 34 35 36 36 37 38 38 37 38 38 37 35 33 31 29 29 28 28 27 27 27 27 28 28 28 27 26 26 26 26 26 27 27
12 13 13 13 13 13 13 13 13 12 12 12 12 14 16 18 19 19 19 19 20 20 20 20 20 19 20 20 21 22 22 21 21 21 21 21 21 21 21 22 22 23 23 24 25 26 26 27 28 28 29 30 30 31 31 32 32 33 34 34 34 34 34 33 31 30 30 30 30 30 30 30 30 29 28 27 26 26 25 26 26 25 25 26 26
11 11 12 12 12 11 11 11 10 10 12 13 15 16 17 18 18 18 18 19 19 19 20 20 20 20 20 20 21 22 22 22 22 22 21 21 21 21 20 20 20 21 22 22 23 24 25 25 25 25 25 26 26 26 26 27 27 28 29 30 30 30 30 30 30 29 30 30 30 30 30 29 28 28 27 26 25 25 25 24 25 25 25 25 25
10 10 10 10 10 10 10 10 10 12 13 15 16 16 16 16 17 17 17 18 18 19 19 20 20 20 21 21 21 21 22 22 22 21 21 20 20 20 20 20 20 20 21 22 23 23 24 23 23 23 23 23 23 24 24 24 24 25 26 27 27 27 28 28 28 28 28 28 28 28 27 26 26 25 25 24 24 23 23 23 24 24 24 24 23
9 9 9 9 9 10 10 11 12 13 14 14 15 15 15 16 16 16 17 17 18 19 19 20 20 20 21 21 20 20 20 20 20 20 20 20 20 20 21 21 20 20 20 21 22 22 23 23 22 22 21 21 21 22 22 22 23 24 25 25 25 25 25 25 25 26 26 26 26 25 25 24 23 23 23 22 22 22 22 22 23 23 23 22 22
9 9 9 9 10 10 11 12 12 13 13 14 14 15 15 16 16 17 17 18 18 19 19 20 20 20 20 20 20 19 19 19 19 19 20 20 20 20 21 21 21 20 20 20 21 21 22 22 22 21 20 20 20 20 21 21 22 23 24 24 24 23 23 22 22 22 23 23 23 22 22 21 20 20 21 21 21 21 22 22 22 22 21 20 20
9 9 9 10 10 11 11 11 12 12 13 14 15 16 16 17 17 18 18 19 19 19 20 19 19 19 19 19 19 19 18 19 19 19 19 20 20 21 21 21 21 20 20 20 20 21 21 21 21 21 20 20 19 19 19 20 21 21 22 23 23 22 21 20 19 18 18 18 18 19 19 18 18 19 20 20 20 20 21 21 20 20 19 19 18
9 9 9 10 10 10 11 11 12 13 14 15 16 17 18 18 19 19 19 19 19 19 19 19 19 19 19 18 18 19 19 19 19 19 20 20 21 21 21 21 20 20 20 20 20 20 21 21 21 21 20 20 19 19 19 19 19 20 20 21 21 21 20 18 17 16 14 15 16 17 17 17 17 18 19 19 19 19 20 19 18 18 17 17 17
9 9 9 10 10 11 12 12 13 15 16 17 18 18 19 19 20 19 19 19 19 19 19 19 18 18 18 18 19 19 19 19 20 20 20 21 21 21 21 20 20 20 19 19 19 20 20 20 20 20 20 20 19 19 18 18 18 19 19 19 19 19 19 18 17 16 15 15 16 16 16 17 17 18 18 18 18 18 18 17 16 16 16 16 15
9 10 10 11 12 13 14 14 15 16 17 18 18 19 19 19 19 19 19 19 18 18 18 18 18 18 19 19 19 20 20 20 20 20 20 20 20 20 20 19 19 18 18 17 17 18 18 19 19 20 19 19 19 19 19 18 18 18 18 18 18 18 18 17 17 16 16 16 16 16 16 17 17 17 17 17 17 17 16 15 15 15 14 14 14
10 11 12 13 14 14 15 16 17 17 18 18 18 19 19 18 19 18 18 18 18 18 18 19 19 19 19 20 20 21 21 21 21 20 20 20 20 19 19 18 18 17 17 17 17 17 17 18 18 18 18 18 18 18 18 18 17 17 17 17 17 17 17 17 16 16 16 16 16 16 16 16 16 16 16 15 15 15 14 14 14 14 14 14 14
12 13 14 14 15 15 16 17 17 17 18 18 18 18 18 18 18 18 18 18 18 18 19 19 20 20 20 20 21 21 21 21 20 20 19 19 19 19 18 18 18 17 17 17 17 17 17 18 18 18 18 17 17 17 17 17 16 16 16 16 16 16 16 16 16 16 16 16 16 16 16 16 15 15 14 14 14 14 14 14 14 14 14 14 14
Wind_Direction
217 218 219 219 221 222 224 221 211 206 204 202 201 200 199 199 199 199 199 198 197 195 194 194 195 197 198 198 199 199 201 206 213 218 220 226 236 245 246 249 258 261 260 259 257 254 254 255 258 260 263 266 269 272 275 279 282 285 286 288 290 293 296 299 301 304 308 311 314 318 320 320 323 325 326 327 328 329 330 331 331 332 332 332 331
217 218 218 219 221 222 223 217 209 205 204 203 202 202 201 201 202 201 201 201 199 198 197 197 198 201 202 202 203 203 207 214 220 222 223 227 234 239 242 246 254 255 255 255 254 253 253 254 257 260 263 266 269 273 276 278 280 282 282 283 286 289 293 296 298 301 304 308 311 314 316 317 319 322 323 324 324 326 327 328 329 330 331 331 331
217 218 218 219 221 222 221 215 209 206 205 204 204 204 203 204 204 204 204 203 201 199 200 202 203 204 205 206 207 209 213 219 222 224 226 229 235 240 241 246 251 251 250 252 253 254 254 254 257 261 264 266 270 274 276 278 279 280 280 281 282 285 288 292 295 297 301 304 308 311 314 315 317 319 321 321 321 322 324 326 326 327 329 331 332
218 219 219 220 221 222 220 214 210 208 207 207 206 205 206 206 206 206 206 205 203 201 202 205 207 208 209 210 211 214 220 223 225 226 228 231 239 244 245 249 250 247 247 250 253 254 254 256 258 261 264 267 271 275 277 278 279 279 280 280 281 283 285 288 291 293 297 301 304 308 311 313 314 316 318 317 317 320 322 323 324 325 328 332 334
219 220 220 221 222 222 220 215 211 209 209 209 208 207 208 208 208 208 207 206 206 205 206 207 209 212 214 215 216 220 224 227 228 229 231 235 242 247 250 253 251 247 246 249 253 253 255 257 259 261 265 269 274 277 278 279 279 278 279 280 280 282 283 285 288 290 293 297 301 304 307 309 311 314 315 315 316 318 320 321 322 325 329 332 334
219 221 222 222 223 222 220 217 213 211 211 211 210 210 210 210 210 210 209 208 208 209 211 212 213 215 217 217 220 224 227 229 229 231 234 238 245 250 254 256 252 247 247 249 252 254 256 257 259 262 267 272 276 279 281 280 280 279 278 279 280 281 282 284 286 288 291 294 298 301 304 306 309 312 314 315 316 317 317 318 321 325 330 332 333
221 222 223 224 225 224 222 219 216 214 213 213 213 212 212 212 212 212 211 211 211 213 215 217 217 218 219 220 222 225 228 230 230 232 235 240 247 252 255 257 253 248 248 250 252 255 257 258 260 264 268 273 276 279 281 281 281 280 279 279 280 280 282 283 285 287 290 293 295 298 301 304 307 310 312 313 314 316 318 319 321 324 329 331 331
222 223 224 225 225 226 224 222 219 217 216 215 216 215 214 214 214 214 213 213 214 217 219 220 221 221 221 222 224 226 229 231 232 234 237 242 249 252 255 256 254 250 249 251 254 257 258 259 262 265 269 273 276 278 281 282 281 281 280 280 280 281 282 283 284 286 288 291 293 295 297 301 304 307 309 311 313 316 320 322 322 323 327 329 330
224 224 225 226 227 228 227 224 221 220 218 217 217 217 216 216 215 215 215 216 217 219 221 222 223 224 224 224 225 228 231 232 234 236 241 247 251 252 254 256 254 251 250 253 256 259 262 263 264 267 269 272 275 278 280 281 281 281 280 280 280 281 282 282 283 285 287 289 290 292 295 298 302 305 307 311 314 316 318 320 321 323 326 327 329
225 225 226 227 228 229 230 227 223 221 220 218 218 219 218 218 217 217 217 218 220 221 222 223 225 226 227 227 228 231 232 234 236 237 242 249 251 250 254 257 254 251 251 255 259 264 266 267 267 269 270 272 275 278 279 280 281 281 280 280 280 281 282 282 283 284 285 287 288 290 292 296 300 303 306 309 312 314 316 317 320 323 325 326 327
226 227 228 228 229 231 232 230 226 224 222 219 219 220 220 220 219 219 219 220 222 223 224 225 226 226 228 229 232 234 236 237 237 239 246 251 250 251 255 257 253 252 254 257 262 268 270 271 272 272 273 274 276 277 279 280 281 282 281 281 281 281 281 282 283 284 284 285 286 288 290 295 299 302 305 308 310 311 313 315 318 322 323 324 324
227 228 229 230 231 232 233 232 229 226 223 221 221 222 222 222 222 222 222 223 223 224 225 227 227 228 229 231 234 236 238 239 240 244 250 253 251 253 256 255 252 253 256 260 264 269 273 275 276 276 276 277 277 278 279 280 281 283 283 283 282 282 283 283 283 283 283 284 285 287 290 295 298 300 304 307 308 308 310 312 315 318 319 319 318
227 228 230 231 233 234 235 234 232 229 226 223 222 223 224 224 225 225 226 225 225 225 227 228 229 229 231 233 236 238 240 241 243 249 254 254 253 255 255 254 254 255 258 261 265 270 274 276 279 280 280 279 280 280 280 281 282 283 283 283 282 282 283 283 283 283 283 283 285 288 291 294 296 298 302 305 305 304 306 310 313 314 315 315 314
229 229 231 232 234 235 236 236 234 231 229 226 225 225 226 227 228 229 229 228 227 227 228 230 231 232 234 236 237 240 244 245 247 253 256 255 254 255 254 253 255 257 258 261 265 270 273 276 279 281 280 280 282 283 282 282 283 283 283 282 282 281 281 281 281 281 281 282 285 288 290 291 292 294 300 302 300 301 304 308 311 313 312 312 312
231 231 232 233 234 234 235 236 235 233 232 230 229 229 230 231 231 232 232 231 230 230 231 233 234 236 237 238 239 245 248 247 250 256 258 255 254 253 252 253 256 258 259 261 266 269 271 274 277 279 279 280 283 283 283 283 283 283 282 282 282 281 280 280 280 279 279 281 283 284 286 288 289 293 299 299 295 297 301 303 306 308 307 307 310
232 233 233 233 234 235 236 236 236 235 235 234 233 232 233 234 234 234 234 233 232 233 234 235 238 239 240 240 244 250 252 249 253 258 257 253 251 251 252 255 257 259 261 263 266 269 271 273 275 277 277 279 280 280 281 282 282 282 282 282 282 282 281 281 280 279 280 281 281 282 284 286 287 290 293 290 290 294 296 297 301 303 302 304 309
236 236 236 236 237 238 238 238 238 237 237 237 237 237 237 237 236 236 235 235 235 236 237 239 240 242 242 244 249 255 255 252 255 257 254 251 250 252 256 258 259 261 263 265 267 269 271 273 274 275 276 278 278 277 277 279 281 281 282 282 283 283 283 282 281 280 281 281 281 281 280 279 280 284 285 284 286 289 290 293 299 300 299 303 308
240 239 239 240 241 241 241 241 241 241 242 243 244 243 242 240 239 238 238 238 239 240 241 242 243 244 246 250 255 258 257 255 256 255 252 251 251 255 259 261 262 263 265 266 267 269 272 273 274 274 277 278 276 273 273 275 278 281 282 282 282 282 283 283 283 281 280 279 278 277 275 275 278 282 283 282 283 283 285 291 296 297 298 301 306
245 245 246 246 247 247 246 246 247 247 249 250 250 248 246 244 242 241 240 240 242 243 244 245 247 249 252 256 257 257 256 255 254 253 252 252 254 257 260 262 264 266 267 268 269 270 272 274 275 275 277 278 275 272 272 273 275 278 280 280 280 282 285 286 285 283 280 278 278 277 277 279 281 281 279 279 280 281 285 288 291 293 297 299 302
256 255 254 253 253 252 252 252 254 254 255 255 254 252 249 247 246 245 244 244 245 247 248 250 253 255 256 256 256 255 256 256 254 253 252 252 254 257 260 263 266 269 271 272 273 273 274 275 276 276 276 277 276 274 272 271 273 276 276 277 279 283 286 286 284 283 281 280 279 280 281 282 281 280 279 280 281 282 283 285 287 290 293 295 298
259 256 254 253 254 255 256 258 259 260 260 259 257 255 253 251 251 250 249 249 249 251 252 254 255 256 255 255 255 256 257 258 257 256 254 254 255 257 261 265 268 270 272 273 274 275 276 277 278 278 276 276 276 275 273 272 272 273 274 276 279 282 282 282 281 280 279 279 280 282 282 283 284 284 283 282 282 281 281 283 285 287 289 291 295
234 240 244 248 251 254 256 258 259 259 259 257 256 256 255 254 253 252 252 251 252 253 254 255 256 257 257 257 258 259 260 261 261 260 259 258 258 259 262 267 269 270 271 273 275 276 278 279 280 279 278 277 276 274 273 273 272 272 274 276 278 279 279 279 279 278 277 279 281 281 282 284 287 286 284 283 283 281 281 282 283 283 285 287 291
197 206 215 223 228 234 240 245 249 251 252 254 255 255 255 255 254 254 254 254 255 256 257 258 259 260 261 261 262 263 263 264 264 264 263 263 262 261 263 265 268 269 270 272 274 276 278 279 279 279 279 278 276 274 273 272 272 272 274 276 277 278 278 277 275 272 272 275 276 278 281 284 286 286 284 283 282 280 280 281 281 281 282 284 287
183 189 196 205 212 220 228 234 239 244 246 249 252 253 253 254 255 256 257 258 259 260 261 262 262 263 265 265 265 265 266 266 266 266 266 266 265 264 263 263 265 267 269 272 274 275 276 277 278 279 279 278 277 275 273 270 269 270 272 273 274 274 272 269 267 265 266 270 273 277 281 283 284 285 283 282 280 279 279 280 279 279 281 283 285
177 181 188 197 204 211 218 223 229 235 238 243 246 248 251 253 254 256 258 259 260 261 262 263 264 265 266 266 266 267 268 268 268 268 268 268 268 268 267 266 265 265 266 270 274 276 277 279 279 280 280 279 279 277 275 273 271 270 270 270 269 268 266 263 262 262 265 269 273 277 281 282 283 284 281 279 280 279 279 279 278 278 279 282 284
168 173 180 188 194 202 210 215 222 228 232 238 241 243 247 250 251 254 256 257 260 262 263 265 266 266 268 269 270 272 272 273 273 273 274 274 274 275 274 273 271 269 267 269 272 274 277 279 280 281 282 281 281 280 278 277 274 271 269 267 265 264 264 263 262 263 267 271 274 277 280 282 284 284 281 279 280 280 279 279 278 278 278 281 283
166 172 179 187 194 204 212 216 222 227 230 234 239 241 246 250 253 256 259 262 265 267 269 270 271 272 274 276 278 279 279 279 280 281 282 283 282 282 281 279 278 276 274 273 273 273 274 276 278 280 281 281 281 280 279 278 275 272 269 266 264 264 265 265 265 266 268 271 272 275 278 281 284 285 283 280 279 280 280 280 280 281 282 283 285
165 171 180 190 196 203 209 213 219 226 230 236 241 246 252 256 259 263 266 269 270 272 273 274 275 276 278 279 279 279 278 279 281 283 283 283 282 282 281 281 281 280 279 279 278 276 274 273 273 274 275 276 277 278 278 278 277 275 274 272 270 268 267 265 265 265 267 268 270 274 277 280 284 286 284 280 279 279 280 280 281 284 286 287 288
162 170 179 188 195 202 209 216 221 227 233 240 247 252 257 261 263 267 269 270 271 273 273 274 276 277 277 278 279 279 279 280 282 282 281 281 281 282 282 282 283 283 283 282 281 278 275 272 270 269 269 270 272 273 274 276 277 278 279 279 279 276 272 269 268 268 269 270 272 274 277 280 284 285 283 280 279 279 279 279 281 284 286 288 290
173 182 189 199 210 217 224 231 236 240 244 249 254 258 263 266 268 270 271 272 274 275 275 276 277 278 278 278 280 280 281 282 283 282 282 283 284 284 284 285 286 286 287 286 283 280 277 275 273 271 269 268 269 270 270 272 275 277 280 281 281 279 277 275 274 274 274 274 274 274 276 280 282 283 282 280 279 279 278 278 280 283 285 288 290
203 209 215 222 227 232 238 242 246 250 253 256 260 263 267 270 273 274 275 276 276 277 277 278 279 279 279 280 280 280 280 281 281 282 282 283 284 284 286 287 289 291 292 291 286 283 280 277 276 275 272 270 269 269 269 270 273 276 279 280 280 279 278 277 277 277 277 276 275 275 277 279 280 282 282 281 280 279 278 278 279 282 284 287 290
235 238 242 245 247 250 252 255 257 261 264 268 271 272 274 276 277 279 279 280 280 280 280 280 280 280 281 281 281 281 282 282 282 282 282 283 283 284 285 287 288 290 290 287 283 282 282 280 278 278 277 276 276 275 275 275 277 279 280 281 282 282 281 282 282 279 276 275 276 276 277 278 281 285 286 284 281 280 279 278 279 280 283 286 288
247 252 256 259 260 261 262 264 267 270 274 277 278 279 280 280 281 281 282 283 283 283 282 282 282 281 282 282 283 283 284 284 285 285 285 286 286 287 287 287 288 289 286 279 276 279 282 284 285 285 285 285 285 286 285 285 285 285 285 286 287 288 289 288 285 278 273 273 276 278 278 279 281 286 289 288 283 280 279 279 280 281 282 285 288
257 260 262 263 263 265 267 270 274 277 280 282 283 285 285 285 285 286 286 285 286 286 286 286 285 285 284 284 284 284 285 286 287 287 287 287 287 288 288 288 289 288 282 274 271 274 279 284 288 290 290 289 288 288 288 288 288 288 287 287 287 288 289 288 284 279 274 272 275 279 280 280 280 284 289 289 283 279 278 278 280 281 283 286 290
265 266 269 271 271 274 277 280 283 286 288 290 291 291 291 292 291 291 290 289 288 288 288 287 287 286 286 285 285 285 287 288 288 288 288 287 286 286 286 285 285 284 277 268 263 263 265 270 274 277 279 280 281 281 281 282 283 284 285 285 285 286 285 283 281 279 274 271 274 279 279 276 276 281 287 287 281 276 276 277 279 281 284 287 291
275 277 279 281 282 285 288 290 293 295 295 295 295 294 293 293 292 291 291 291 290 290 289 288 287 286 286 287 288 289 290 290 289 289 288 288 287 286 283 279 277 276 274 270 265 262 260 260 261 263 266 268 270 272 273 275 276 277 279 280 281 282 282 281 279 277 273 271 275 277 273 271 275 282 286 284 278 274 274 275 277 280 283 287 290
283 284 287 290 293 295 297 297 297 297 296 295 294 292 292 291 291 291 292 292 293 294 294 293 291 289 288 288 289 291 292 292 292 291 289 286 285 281 277 274 271 270 268 266 265 264 262 260 260 261 263 265 268 270 273 275 276 277 277 276 276 276 275 275 274 273 273 274 275 273 270 272 278 283 285 281 276 272 273 274 277 279 283 286 289
287 289 292 294 294 294 294 293 292 291 291 291 290 290 290 290 291 294 297 300 302 302 300 298 296 293 291 289 289 290 289 289 289 288 286 286 285 282 279 277 275 273 272 270 269 269 268 268 268 268 269 271 272 274 276 277 278 279 278 278 277 276 274 272 271 271 273 274 272 270 270 274 279 283 283 279 274 271 272 274 276 279 282 285 289
287 289 289 288 288 288 287 287 287 287 287 288 288 287 287 289 293 298 303 305 305 303 301 300 298 295 293 290 288 288 288 288 288 288 287 287 286 285 283 281 278 277 276 276 277 277 277 278 279 279 279 280 280 281 281 282 281 281 280 280 279 278 277 275 274 272 272 271 269 268 270 274 279 282 281 276 271 270 271 273 275 278 282 285 288
284 285 285 285 285 285 284 284 285 284 284 284 282 282 285 290 296 300 302 302 302 301 299 299 297 295 294 291 289 290 292 292 292 290 288 286 285 283 282 282 281 280 281 281 282 283 284 285 286 286 286 287 286 286 287 287 286 285 284 283 282 281 280 278 275 272 270 268 267 267 269 273 277 279 276 271 268 267 269 271 274 278 281 285 288
280 281 282 282 281 282 281 281 282 281 280 279 279 283 289 293 295 296 296 296 297 297 297 297 296 296 295 293 293 295 296 295 294 291 289 288 287 286 285 285 285 286 287 287 287 288 288 289 290 291 291 292 293 293 292 292 292 291 290 288 286 284 281 279 275 272 269 268 268 269 270 272 273 272 268 264 262 263 266 269 274 278 281 284 288
273 274 276 277 277 278 277 276 276 277 280 282 285 288 290 291 291 292 292 293 295 296 297 298 297 296 296 295 295 296 296 296 295 295 295 294 293 293 293 293 292 293 294 293 293 293 294 295 297 299 300 301 302 301 301 301 300 299 296 294 292 289 286 282 278 275 273 272 271 271 270 268 266 262 258 257 257 260 265 269 274 278 281 284 286
267 270 272 273 273 271 269 271 275 280 284 287 288 289 289 290 291 292 293 294 295 295 295 295 295 295 295 295 295 296 297 297 298 299 299 299 299 299 299 300 300 300 300 299 299 300 302 304 306 308 310 310 309 309 309 309 308 306 305 302 300 297 293 289 285 281 278 275 272 270 267 262 257 254 253 255 258 261 265 270 273 277 280 283 285
265 268 269 268 268 267 269 274 280 284 287 289 290 290 291 291 291 292 292 292 292 292 292 293 294 294 295 296 296 297 298 299 301 302 302 302 302 302 302 302 303 304 304 304 304 305 307 309 311 312 314 314 312 311 312 312 311 310 309 307 305 303 300 295 290 284 279 276 273 269 265 259 255 254 255 257 260 264 267 271 274 277 280 282 284
261 262 263 265 266 269 273 278 282 285 288 289 290 290 290 289 289 289 290 290 291 292 292 293 294 295 295 296 298 299 299 300 301 301 302 302 302 302 302 303 305 305 305 305 305 306 308 310 311 312 313 313 312 311 311 311 311 311 311 309 308 307 304 301 296 290 285 281 277 272 266 261 258 258 259 261 264 267 270 273 275 278 280 281 282
259 261 264 266 268 271 275 278 282 285 287 288 288 288 288 288 289 290 291 291 292 293 293 294 294 295 296 297 298 299 299 299 299 299 300 300 301 301 302 303 304 305 305 304 305 306 307 308 309 311 312 313 312 310 309 308 309 310 310 310 309 309 307 305 302 298 291 283 276 271 267 264 262 261 262 265 267 269 271 274 276 278 279 280 281
264 266 268 270 272 275 278 280 283 285 286 286 287 287 287 289 289 290 291 292 292 293 294 295 295 296 297 297 297 297 297 297 297 298 299 300 300 301 302 303 303 303 303 303 304 304 305 306 308 310 311 312 312 310 308 306 306 306 307 307 308 308 306 303 301 297 290 280 272 269 268 267 266 266 267 269 271 271 273 275 277 277 278 279 280
269 270 272 274 275 277 279 281 282 283 284 284 286 286 286 287 288 289 290 291 292 293 295 295 295 296 295 295 295 295 295 296 297 298 298 298 299 300 301 302 302 302 302 302 303 303 304 305 307 308 309 310 310 310 309 307 305 304 304 303 304 303 302 299 296 292 286 279 275 273 272 270 270 271 271 272 272 273 274 275 276 276 277 278 280
269 271 272 274 275 277 279 281 282 282 283 284 284 285 285 286 287 288 289 290 291 292 293 293 293 293 293 293 294 294 295 296 297 297 297 297 298 299 300 301 301 301 302 303 303 303 304 305 306 307 308 308 308 309 308 307 306 305 304 302 301 300 298 296 294 291 286 283 280 277 275 274 273 274 274 274 274 274 274 274 275 275 275 277 280
269 270 272 275 277 278 280 281 281 282 283 283 283 284 285 285 286 287 288 289 290 290 291 291 291 291 292 292 293 293 294 295 295 295 296 296 296 297 298 298 299 300 301 302 302 303 303 304 304 306 307 308 308 309 308 308 307 306 305 303 301 299 296 294 292 289 286 284 281 279 278 277 277 276 275 274 273 273 273 272 272 272 273 276 280
270 272 275 278 279 280 281 282 282 282 282 282 282 283 283 283 285 286 286 287 288 288 288 289 289 290 290 291 291 292 293 293 294 294 294 294 294 294 295 295 296 297 297 298 300 301 300 301 302 303 305 306 308 309 309 310 309 308 307 305 302 299 297 294 291 288 286 284 283 281 280 279 278 276 275 274 273 272 272 270 270 271 273 276 279
Height
1510 1513 1515 1517 1519 1521 1523 1525 1527 1529 1532 1535 1538 1540 1542 1543 1545 1547 1547 1548 1549 1550 1551 1552 1553 1554 1555 1556 1558 1559 1560 1561 1561 1562 1563 1563 1563 1563 1563 1563 1564 1565 1566 1567 1567 1567 1567 1567 1567 1567 1567 1567 1566 1566 1566 1565 1565 1564 1564 1563 1563 1562 1561 1560 1557 1555 1555 1555 1554 1553 1552 1549 1547 1546 1543 1541 1539 1537 1535 1533 1531 1529 1527 1525 1523
1507 1510 1512 1514 1516 1519 1521 1522 1524 1527 1530 1533 1535 1537 1539 1541 1543 1544 1545 1546 1547 1548 1549 1550 1551 1552 1553 1554 1556 1557 1558 1559 1560 1560 1561 1561 1560 1560 1560 1560 1561 1563 1564 1565 1565 1565 1565 1565 1565 1565 1565 1565 1565 1564 1564 1563 1563 1562 1562 1561 1561 1560 1559 1558 1556 1553 1552 1552 1552 1551 1549 1547 1545 1543 1541 1538 1536 1534 1532 1530 1528 1526 1524 1522 1519
1505 1508 1510 1512 1514 1516 1518 1520 1522 1525 1528 1530 1532 1534 1537 1539 1540 1542 1543 1544 1545 1547 1548 1548 1549 1550 1551 1552 1554 1555 1556 1557 1558 1559 1559 1559 1559 1558 1558 1558 1559 1561 1562 1562 1563 1563 1563 1563 1563 1563 1563 1563 1562 1562 1562 1561 1561 1560 1560 1560 1559 1558 1557 1556 1554 1552 1550 1549 1548 1548 1546 1544 1542 1540 1538 1536 1533 1531 1528 1526 1524 1522 1521 1519 1516
1503 1505 1507 1509 1511 1513 1515 1517 1519 1522 1524 1527 1529 1532 1534 1536 1538 1539 1541 1542 1544 1545 1546 1546 1547 1548 1549 1550 1551 1553 1554 1555 1556 1557 1557 1557 1557 1557 1556 1556 1557 1558 1559 1560 1560 1561 1561 1561 1561 1561 1561 1561 1560 1560 1559 1559 1559 1558 1558 1557 1557 1556 1555 1554 1553 1551 1548 1546 1545 1544 1543 1541 1540 1538 1536 1533 1531 1528 1525 1523 1521 1519 1517 1515 1512
1499 1501 1504 1506 1508 1510 1512 1514 1516 1518 1521 1523 1526 1529 1531 1533 1535 1537 1538 1540 1542 1542 1543 1544 1544 1546 1547 1548 1549 1551 1552 1553 1554 1555 1555 1556 1556 1555 1554 1554 1555 1556 1557 1558 1558 1558 1558 1559 1559 1559 1558 1558 1558 1558 1557 1557 1556 1556 1555 1555 1554 1553 1553 1552 1550 1549 1547 1545 1543 1542 1541 1539 1537 1536 1533 1530 1528 1525 1523 1520 1518 1516 1514 1512 1509
1496 1498 1501 1503 1504 1506 1508 1510 1512 1515 1518 1521 1524 1526 1529 1531 1532 1534 1536 1538 1539 1540 1541 1542 1542 1544 1545 1546 1548 1549 1550 1552 1553 1553 1554 1554 1554 1554 1553 1553 1553 1554 1555 1555 1556 1556 1556 1556 1556 1556 1556 1556 1556 1555 1554 1554 1554 1553 1553 1552 1552 1551 1550 1549 1548 1546 1545 1543 1541 1539 1538 1536 1534 1533 1531 1528 1525 1522 1519 1517 1515 1512 1510 1508 1505
1493 1495 1498 1499 1501 1503 1505 1507 1510 1513 1516 1519 1522 1524 1526 1528 1530 1532 1534 1535 1537 1538 1539 1540 1541 1542 1543 1544 1545 1547 1548 1549 1550 1551 1552 1552 1552 1552 1552 1552 1552 1552 1553 1553 1553 1554 1554 1554 1554 1554 1554 1553 1553 1552 1552 1551 1551 1551 1550 1550 1549 1548 1547 1546 1545 1543 1542 1540 1539 1537 1535 1533 1531 1530 1528 1525 1523 1519 1516 1514 1511 1509 1507 1504 1501
1489 1492 1494 1496 1498 1500 1502 1505 1508 1511 1514 1517 1520 1522 1524 1526 1528 1530 1531 1533 1534 1536 1537 1538 1539 1540 1541 1542 1543 1544 1545 1546 1548 1549 1549 1550 1550 1550 1551 1550 1550 1550 1550 1550 1551 1551 1551 1551 1551 1551 1551 1551 1550 1550 1549 1549 1548 1548 1547 1546 1545 1544 1544 1543 1541 1540 1539 1537 1536 1534 1532 1530 1529 1527 1525 1522 1520 1517 1514 1511 1508 1506 1504 1502 1499
1485 1489 1491 1492 1495 1498 1501 1503 1505 1508 1511 1513 1516 1518 1521 1523 1525 1527 1529 1530 1532 1533 1535 1536 1537 1537 1538 1539 1540 1541 1542 1544 1545 1546 1547 1548 1548 1548 1549 1549 1548 1549 1548 1548 1548 1549 1549 1549 1549 1549 1548 1548 1548 1547 1547 1546 1546 1545 1544 1543 1542 1541 1540 1539 1538 1537 1536 1534 1532 1531 1529 1527 1526 1524 1521 1519 1516 1514 1511 1509 1506 1503 1501 1498 1496
1482 1485 1487 1490 1493 1496 1499 1501 1503 1505 1507 1510 1513 1515 1518 1520 1522 1524 1526 1528 1529 1530 1532 1533 1534 1535 1536 1537 1538 1539 1540 1542 1543 1544 1545 1545 1546 1547 1547 1547 1547 1546 1546 1545 1546 1546 1546 1546 1546 1546 1546 1545 1545 1544 1544 1544 1543 1542 1541 1540 1539 1538 1536 1536 1535 1534 1532 1530 1529 1528 1526 1524 1523 1521 1519 1516 1514 1511 1509 1506 1503 1501 1498 1495 1492
1479 1482 1484 1488 1491 1494 1496 1498 1500 1502 1504 1507 1510 1513 1515 1517 1520 1522 1524 1525 1526 1528 1529 1530 1531 1533 1533 1535 1536 1537 1538 1540 1541 1542 1543 1543 1544 1544 1544 1545 1545 1544 1543 1543 1543 1543 1543 1543 1543 1543 1543 1542 1542 1542 1541 1540 1539 1538 1537 1536 1535 1534 1533 1532 1531 1530 1529 1527 1526 1524 1522 1521 1519 1518 1516 1514 1511 1509 1506 1504 1501 1498 1496 1493 1489
1476 1479 1482 1486 1488 1490 1493 1495 1498 1500 1503 1505 1508 1510 1513 1515 1518 1520 1521 1522 1523 1524 1526 1527 1529 1530 1531 1532 1534 1535 1537 1538 1539 1540 1540 1541 1542 1542 1542 1542 1542 1542 1541 1541 1541 1541 1540 1540 1540 1540 1540 1540 1539 1539 1538 1537 1536 1535 1534 1532 1531 1530 1529 1528 1528 1527 1525 1523 1522 1521 1519 1518 1516 1514 1513 1511 1508 1506 1503 1501 1499 1497 1494 1492 1488
1473 1476 1479 1482 1485 1488 1491 1493 1496 1498 1501 1503 1506 1508 1511 1513 1515 1517 1518 1519 1520 1522 1523 1525 1526 1528 1529 1530 1532 1533 1535 1536 1537 1537 1538 1538 1539 1539 1539 1539 1539 1539 1538 1538 1538 1538 1537 1537 1537 1537 1537 1536 1536 1535 1534 1534 1533 1531 1530 1529 1527 1526 1525 1525 1524 1523 1521 1520 1518 1517 1516 1515 1513 1511 1510 1508 1505 1503 1501 1498 1497 1495 1492 1490 1486
1470 1473 1476 1479 1482 1485 1488 1490 1493 1496 1498 1501 1503 1506 1508 1511 1512 1514 1515 1516 1517 1519 1521 1522 1524 1525 1527 1528 1529 1531 1532 1534 1534 1534 1535 1535 1536 1536 1536 1536 1536 1536 1535 1535 1535 1534 1534 1534 1534 1534 1534 1533 1533 1532 1531 1530 1529 1528 1527 1525 1524 1523 1522 1521 1520 1519 1518 1516 1515 1514 1513 1512 1510 1508 1507 1506 1503 1500 1498 1495 1494 1492 1489 1487 1485
1468 1471 1474 1477 1479 1481 1484 1487 1490 1493 1496 1499 1501 1504 1506 1508 1510 1511 1512 1513 1515 1517 1519 1520 1522 1523 1524 1526 1527 1528 1530 1531 1531 1531 1532 1532 1532 1532 1533 1533 1532 1532 1532 1532 1532 1531 1531 1531 1530 1530 1530 1530 1529 1528 1527 1526 1525 1524 1523 1522 1521 1520 1518 1518 1517 1516 1514 1513 1512 1511 1509 1508 1507 1505 1504 1503 1500 1498 1495 1493 1492 1490 1486 1484 1482
1465 1468 1471 1473 1476 1478 1481 1484 1487 1490 1493 1496 1498 1501 1503 1505 1507 1508 1509 1511 1513 1515 1517 1518 1519 1521 1522 1523 1524 1525 1527 1528 1528 1528 1528 1529 1529 1528 1529 1529 1528 1528 1528 1528 1528 1528 1528 1527 1527 1527 1526 1526 1526 1525 1523 1523 1521 1520 1519 1518 1517 1516 1514 1514 1513 1512 1511 1510 1509 1508 1506 1505 1503 1502 1501 1500 1497 1495 1492 1491 1490 1488 1484 1481 1479
1462 1465 1468 1471 1473 1476 1479 1481 1484 1487 1490 1493 1495 1498 1500 1502 1504 1505 1507 1509 1510 1512 1514 1515 1517 1518 1519 1520 1521 1522 1523 1524 1524 1525 1525 1525 1525 1525 1525 1525 1525 1524 1525 1525 1525 1524 1524 1524 1523 1523 1522 1522 1522 1521 1520 1519 1517 1516 1515 1514 1513 1511 1510 1510 1509 1508 1507 1506 1505 1504 1503 1501 1500 1499 1498 1497 1495 1493 1490 1487 1488 1486 1482 1479 1476
1460 1463 1466 1469 1472 1474 1476 1479 1482 1484 1487 1490 1492 1495 1497 1499 1501 1503 1504 1506 1508 1510 1512 1513 1514 1515 1517 1518 1518 1518 1519 1520 1521 1521 1521 1521 1521 1521 1521 1521 1521 1520 1520 1521 1521 1520 1520 1520 1519 1519 1518 1518 1518 1517 1516 1515 1513 1512 1511 1510 1509 1507 1506 1506 1505 1504 1503 1501 1500 1499 1498 1498 1496 1495 1494 1493 1492 1490 1487 1485 1484 1483 1480 1477 1474
1458 1461 1465 1468 1471 1473 1476 1478 1480 1482 1485 1487 1489 1492 1494 1496 1498 1500 1502 1504 1506 1508 1509 1510 1512 1513 1514 1514 1514 1514 1515 1516 1517 1518 1518 1518 1518 1518 1518 1517 1516 1516 1516 1516 1517 1516 1516 1515 1515 1515 1514 1514 1514 1513 1512 1511 1509 1508 1507 1505 1503 1502 1502 1502 1501 1499 1498 1497 1495 1494 1493 1493 1492 1491 1490 1489 1488 1486 1484 1482 1481 1479 1476 1475 1473
1458 1461 1464 1467 1470 1472 1474 1476 1478 1480 1482 1484 1487 1489 1491 1493 1496 1498 1500 1502 1504 1506 1507 1508 1508 1509 1509 1510 1509 1510 1511 1512 1513 1514 1514 1514 1514 1514 1514 1512 1511 1511 1511 1511 1511 1511 1511 1511 1511 1511 1510 1510 1509 1509 1508 1507 1505 1504 1502 1500 1499 1498 1499 1498 1496 1494 1493 1491 1490 1489 1488 1488 1488 1487 1486 1485 1484 1482 1480 1478 1477 1476 1474 1472 1471
1457 1460 1462 1465 1468 1470 1472 1474 1476 1478 1480 1482 1485 1487 1489 1491 1493 1495 1498 1500 1501 1502 1503 1503 1504 1504 1505 1505 1505 1506 1507 1508 1509 1510 1510 1511 1511 1510 1509 1508 1507 1507 1507 1506 1506 1505 1505 1505 1506 1506 1506 1506 1505 1504 1503 1502 1501 1499 1497 1496 1495 1495 1495 1493 1491 1489 1488 1486 1485 1484 1483 1483 1483 1482 1481 1480 1479 1478 1477 1475 1473 1472 1471 1469 1468
1456 1459 1461 1463 1466 1468 1470 1472 1474 1476 1478 1480 1482 1484 1486 1488 1490 1492 1494 1495 1497 1497 1498 1499 1499 1499 1500 1501 1501 1502 1503 1504 1505 1506 1506 1507 1507 1506 1505 1503 1503 1503 1502 1501 1500 1499 1499 1499 1500 1500 1500 1500 1500 1500 1498 1497 1495 1493 1492 1491 1491 1491 1489 1487 1486 1484 1482 1481 1480 1479 1478 1478 1479 1478 1477 1475 1475 1474 1472 1471 1470 1469 1467 1466 1465
1455 1458 1460 1462 1464 1466 1468 1470 1472 1474 1475 1477 1479 1480 1483 1484 1486 1488 1490 1491 1492 1493 1494 1495 1495 1495 1496 1497 1497 1498 1499 1500 1500 1501 1501 1502 1502 1502 1501 1500 1499 1499 1497 1495 1494 1493 1493 1493 1493 1493 1494 1494 1494 1494 1493 1492 1490 1487 1487 1486 1486 1485 1484 1482 1480 1478 1478 1477 1476 1474 1473 1474 1474 1473 1472 1471 1471 1470 1468 1467 1467 1465 1464 1463 1462
1455 1457 1459 1461 1463 1465 1466 1468 1470 1472 1473 1475 1476 1478 1480 1481 1483 1484 1486 1487 1488 1489 1490 1491 1491 1491 1491 1492 1492 1493 1494 1495 1495 1496 1496 1497 1497 1497 1497 1496 1495 1494 1491 1490 1489 1488 1488 1487 1487 1487 1487 1486 1486 1486 1486 1485 1484 1482 1482 1481 1481 1480 1478 1476 1474 1474 1474 1472 1471 1470 1469 1470 1470 1469 1468 1467 1466 1465 1465 1464 1463 1462 1461 1459 1458
1454 1456 1458 1460 1462 1464 1465 1467 1468 1470 1471 1473 1474 1476 1477 1479 1480 1481 1482 1484 1484 1485 1485 1486 1486 1486 1487 1487 1487 1488 1489 1490 1490 1491 1491 1491 1491 1491 1491 1491 1491 1489 1487 1485 1483 1482 1482 1482 1481 1481 1480 1479 1479 1478 1478 1478 1478 1477 1477 1476 1475 1474 1473 1471 1470 1470 1469 1467 1466 1465 1465 1465 1465 1465 1463 1462 1462 1461 1461 1460 1459 1458 1457 1455 1454
1454 1456 1458 1459 1461 1463 1464 1466 1467 1468 1470 1471 1473 1474 1475 1476 1478 1478 1479 1480 1480 1481 1482 1482 1482 1483 1483 1483 1483 1484 1485 1485 1485 1485 1486 1486 1486 1486 1485 1485 1485 1484 1482 1481 1480 1479 1477 1476 1475 1473 1472 1472 1471 1470 1470 1471 1471 1471 1470 1470 1469 1468 1467 1466 1465 1464 1463 1462 1462 1461 1461 1461 1460 1460 1459 1458 1457 1457 1457 1455 1454 1454 1454 1452 1449
1454 1456 1458 1459 1461 1463 1464 1466 1467 1468 1469 1471 1472 1473 1474 1475 1476 1476 1477 1478 1478 1478 1479 1479 1479 1479 1479 1480 1480 1480 1480 1480 1480 1480 1480 1480 1479 1479 1478 1478 1477 1477 1476 1475 1475 1475 1473 1472 1469 1467 1466 1464 1463 1462 1462 1462 1463 1463 1463 1463 1463 1463 1462 1462 1461 1460 1459 1458 1458 1457 1456 1456 1455 1455 1454 1453 1453 1453 1453 1451 1449 1449 1449 1448 1445
1455 1457 1459 1460 1462 1463 1465 1466 1467 1468 1469 1470 1471 1472 1473 1473 1474 1475 1475 1476 1476 1476 1476 1476 1477 1477 1476 1476 1476 1476 1475 1475 1475 1475 1474 1473 1472 1472 1471 1470 1470 1470 1469 1469 1469 1469 1468 1466 1465 1462 1460 1459 1457 1456 1455 1454 1455 1455 1456 1457 1458 1458 1458 1458 1457 1456 1455 1454 1454 1453 1452 1451 1451 1450 1450 1449 1448 1449 1449 1447 1445 1444 1444 1443 1440
1455 1457 1458 1460 1461 1463 1464 1465 1466 1467 1468 1469 1470 1470 1471 1472 1472 1473 1473 1473 1473 1473 1473 1473 1473 1473 1473 1472 1472 1471 1470 1470 1470 1469 1468 1467 1466 1466 1465 1464 1464 1463 1463 1463 1462 1461 1460 1459 1458 1457 1455 1454 1453 1452 1450 1450 1450 1450 1450 1451 1452 1452 1453 1452 1451 1451 1451 1450 1449 1448 1447 1447 1446 1446 1445 1444 1444 1445 1444 1443 1442 1440 1440 1439 1436
1455 1456 1458 1459 1460 1461 1462 1463 1464 1465 1466 1467 1468 1469 1469 1469 1470 1470 1470 1470 1470 1470 1470 1469 1469 1469 1468 1468 1468 1467 1466 1466 1465 1464 1463 1462 1461 1460 1459 1458 1457 1457 1457 1457 1456 1454 1453 1453 1452 1451 1451 1450 1449 1448 1447 1447 1446 1446 1446 1447 1447 1446 1447 1446 1446 1446 1446 1445 1444 1444 1443 1442 1441 1441 1441 1440 1440 1440 1440 1439 1438 1437 1436 1435 1433
1454 1456 1457 1458 1459 1460 1461 1462 1463 1464 1465 1465 1466 1466 1467 1467 1467 1467 1467 1467 1467 1467 1466 1466 1465 1465 1464 1464 1463 1463 1462 1461 1460 1459 1458 1457 1456 1455 1454 1453 1452 1452 1452 1451 1450 1449 1448 1448 1447 1446 1447 1446 1445 1445 1445 1444 1444 1443 1443 1443 1443 1442 1442 1441 1441 1442 1441 1440 1440 1439 1439 1438 1437 1437 1437 1436 1435 1436 1436 1435 1435 1434 1432 1431 1429
1454 1455 1456 1457 1458 1459 1460 1461 1461 1462 1463 1463 1464 1464 1465 1465 1464 1464 1464 1464 1464 1463 1463 1462 1462 1461 1460 1460 1459 1458 1457 1457 1456 1455 1454 1453 1452 1451 1450 1450 1449 1448 1448 1448 1446 1444 1443 1443 1443 1443 1443 1442 1441 1441 1441 1441 1440 1440 1439 1439 1438 1438 1438 1438 1438 1438 1437 1436 1436 1435 1434 1434 1433 1432 1432 1432 1431 1431 1431 1431 1431 1430 1429 1428 1426
1453 1454 1455 1456 1457 1458 1458 1459 1460 1461 1461 1462 1462 1462 1462 1462 1462 1462 1461 1461 1460 1460 1460 1459 1459 1458 1457 1456 1455 1454 1453 1452 1452 1451 1450 1449 1448 1447 1446 1445 1445 1445 1445 1444 1443 1441 1440 1440 1439 1440 1440 1439 1438 1438 1437 1437 1436 1436 1435 1434 1434 1434 1434 1434 1434 1433 1432 1431 1431 1430 1429 1429 1429 1428 1427 1427 1427 1426 1426 1426 1427 1426 1425 1424 1423
1452 1453 1453 1454 1455 1456 1457 1458 1458 1458 1459 1459 1459 1459 1459 1459 1459 1459 1459 1458 1458 1457 1456 1456 1455 1454 1453 1453 1452 1451 1450 1449 1448 1447 1446 1445 1444 1443 1442 1441 1441 1441 1441 1441 1440 1439 1438 1437 1436 1436 1436 1435 1435 1434 1433 1433 1432 1432 1431 1430 1430 1430 1430 1430 1429 1428 1428 1427 1426 1426 1425 1425 1424 1423 1423 1423 1422 1422 1421 1422 1422 1422 1421 1420 1419
1450 1451 1452 1453 1453 1454 1455 1455 1456 1456 1456 1456 1456 1457 1457 1456 1456 1456 1456 1455 1455 1454 1453 1452 1451 1450 1450 1449 1448 1447 1447 1446 1445 1444 1442 1441 1441 1440 1439 1438 1438 1438 1438 1438 1437 1437 1436 1435 1434 1433 1432 1431 1431 1430 1429 1429 1428 1428 1427 1426 1426 1426 1426 1425 1424 1423 1423 1423 1422 1422 1421 1421 1420 1420 1419 1419 1418 1418 1417 1418 1418 1418 1417 1417 1415
1449 1449 1450 1451 1451 1452 1452 1453 1453 1453 1453 1454 1454 1454 1454 1453 1453 1453 1452 1452 1451 1451 1450 1450 1449 1447 1446 1445 1445 1444 1443 1442 1442 1441 1439 1438 1438 1437 1436 1435 1435 1434 1434 1434 1434 1433 1433 1432 1431 1430 1429 1428 1427 1426 1425 1424 1424 1423 1423 1422 1422 1421 1421 1420 1420 1419 1419 1418 1418 1418 1417 1416 1416 1416 1415 1414 1414 1414 1414 1414 1415 1414 1414 1413 1412
1447 1447 1448 1448 1449 1449 1450 1450 1450 1450 1451 1451 1451 1451 1450 1450 1450 1449 1449 1449 1448 1447 1447 1446 1446 1445 1444 1443 1442 1441 1440 1439 1438 1437 1437 1436 1435 1434 1433 1432 1431 1431 1431 1430 1430 1429 1429 1428 1428 1426 1425 1424 1423 1422 1422 1421 1420 1419 1418 1417 1416 1416 1416 1415 1415 1415 1414 1414 1413 1413 1413 1412 1411 1411 1411 1410 1410 1410 1410 1411 1411 1410 1410 1410 1409
1445 1445 1446 1446 1447 1447 1447 1448 1447 1448 1448 1448 1447 1447 1447 1447 1447 1447 1446 1446 1445 1445 1444 1444 1443 1442 1441 1440 1439 1438 1437 1436 1435 1434 1434 1433 1432 1431 1431 1430 1429 1428 1427 1427 1426 1425 1425 1424 1424 1423 1422 1421 1420 1419 1418 1417 1416 1414 1413 1412 1412 1411 1410 1410 1410 1409 1409 1409 1409 1409 1408 1408 1407 1407 1407 1406 1406 1406 1406 1407 1407 1406 1406 1406 1405
1443 1443 1444 1444 1444 1445 1445 1445 1445 1445 1445 1445 1445 1445 1444 1444 1444 1444 1444 1443 1443 1442 1442 1441 1440 1439 1439 1438 1436 1435 1434 1433 1433 1432 1431 1430 1429 1429 1428 1427 1426 1425 1424 1423 1422 1422 1421 1420 1419 1419 1418 1417 1416 1415 1413 1412 1411 1409 1408 1407 1406 1406 1405 1405 1404 1404 1404 1403 1404 1404 1403 1403 1403 1403 1402 1402 1402 1402 1403 1403 1403 1403 1402 1402 1402
1440 1441 1441 1441 1442 1442 1442 1442 1442 1442 1442 1442 1442 1442 1442 1442 1442 1441 1441 1440 1440 1439 1439 1438 1437 1436 1436 1435 1433 1432 1431 1431 1430 1429 1428 1427 1427 1426 1425 1424 1423 1422 1421 1420 1419 1418 1417 1417 1416 1415 1414 1412 1411 1410 1408 1407 1405 1404 1403 1402 1401 1400 1399 1399 1399 1399 1398 1398 1398 1398 1398 1398 1398 1398 1398 1398 1398 1399 1399 1399 1399 1399 1399 1398 1398
1438 1438 1439 1439 1439 1439 1439 1439 1439 1439 1439 1439 1439 1439 1439 1439 1438 1438 1438 1437 1437 1436 1436 1435 1434 1433 1432 1431 1430 1429 1428 1428 1427 1426 1425 1424 1424 1423 1422 1421 1420 1419 1419 1418 1417 1416 1415 1413 1412 1411 1410 1408 1407 1405 1404 1402 1401 1399 1398 1397 1396 1395 1394 1394 1394 1394 1394 1393 1393 1393 1394 1394 1394 1393 1393 1394 1394 1395 1395 1395 1395 1395 1395 1395 1394
1436 1436 1436 1436 1437 1437 1437 1437 1437 1437 1437 1437 1437 1436 1436 1436 1435 1435 1435 1434 1434 1433 1433 1432 1431 1430 1429 1428 1427 1426 1425 1425 1424 1423 1422 1421 1421 1420 1419 1419 1418 1417 1416 1415 1414 1412 1411 1410 1409 1408 1406 1405 1403 1401 1400 1398 1397 1395 1393 1392 1391 1390 1390 1389 1389 1389 1389 1389 1389 1389 1389 1389 1389 1389 1389 1389 1390 1391 1391 1392 1392 1391 1391 1391 1391
1433 1433 1434 1434 1434 1434 1435 1435 1435 1435 1435 1435 1434 1434 1433 1433 1432 1432 1431 1431 1431 1430 1430 1429 1428 1427 1427 1426 1425 1424 1423 1422 1421 1420 1420 1419 1418 1417 1416 1416 1415 1414 1413 1412 1410 1409 1408 1407 1406 1404 1403 1402 1400 1398 1396 1395 1393 1391 1390 1389 1388 1387 1386 1385 1385 1385 1385 1385 1384 1384 1384 1384 1384 1384 1385 1386 1387 1387 1388 1388 1388 1388 1388 1387 1387
1431 1431 1431 1431 1432 1432 1432 1432 1433 1433 1433 1432 1432 1432 1431 1430 1430 1429 1428 1428 1428 1427 1427 1426 1426 1425 1424 1423 1423 1422 1421 1420 1419 1418 1417 1416 1415 1414 1414 1413 1412 1411 1410 1409 1407 1406 1404 1403 1402 1401 1400 1399 1397 1395 1394 1392 1390 1389 1387 1386 1384 1384 1383 1382 1381 1381 1381 1380 1380 1380 1380 1380 1381 1381 1382 1383 1384 1384 1385 1385 1385 1385 1384 1384 1384
1429 1429 1429 1429 1430 1430 1430 1430 1430 1430 1430 1430 1430 1429 1429 1428 1427 1426 1426 1425 1425 1424 1424 1423 1423 1422 1421 1421 1420 1419 1418 1417 1416 1415 1414 1413 1413 1412 1411 1410 1409 1409 1407 1406 1405 1403 1402 1401 1399 1398 1397 1396 1395 1393 1391 1390 1388 1387 1385 1383 1382 1381 1380 1379 1378 1378 1377 1377 1377 1377 1377 1378 1379 1379 1380 1380 1381 1381 1381 1381 1381 1381 1381 1381 1381
1427 1427 1427 1427 1428 1428 1427 1427 1427 1427 1427 1427 1427 1427 1427 1426 1425 1424 1424 1423 1422 1422 1421 1420 1420 1419 1419 1418 1417 1416 1416 1415 1414 1413 1412 1411 1410 1409 1408 1408 1407 1406 1405 1404 1402 1401 1400 1398 1397 1396 1394 1393 1392 1391 1389 1388 1386 1385 1383 1381 1380 1379 1378 1377 1376 1375 1375 1375 1375 1375 1375 1376 1376 1377 1377 1378 1378 1378 1378 1378 1378 1378 1378 1378 1378
1425 1425 1426 1426 1426 1426 1426 1425 1425 1425 1425 1425 1425 1425 1424 1424 1423 1422 1421 1420 1419 1419 1418 1417 1417 1416 1416 1415 1415 1414 1413 1413 1412 1411 1410 1409 1408 1407 1406 1405 1404 1403 1402 1401 1400 1398 1397 1396 1394 1393 1392 1390 1389 1388 1387 1385 1384 1383 1381 1380 1378 1377 1376 1375 1374 1373 1373 1373 1373 1373 1373 1374 1374 1375 1375 1375 1375 1375 1375 1375 1375 1375 1375 1375 1375
1424 1424 1424 1424 1424 1424 1424 1423 1423 1423 1423 1422 1422 1422 1422 1421 1421 1420 1419 1418 1417 1416 1415 1415 1414 1414 1413 1413 1412 1411 1411 1410 1409 1408 1407 1406 1405 1404 1403 1402 1402 1401 1400 1399 1397 1396 1394 1393 1392 1390 1389 1388 1387 1386 1384 1383 1382 1380 1379 1378 1376 1375 1374 1373 1373 1372 1372 1371 1371 1371 1371 1371 1372 1372 1372 1372 1372 1372 1372 1373 1373 1373 1373 1373 1372
1422 1423 1423 1423 1422 1422 1422 1421 1421 1421 1420 1420 1420 1419 1419 1419 1418 1417 1416 1415 1414 1413 1413 1412 1412 1411 1411 1410 1410 1409 1408 1407 1407 1406 1405 1404 1403 1402 1401 1400 1399 1398 1397 1396 1395 1394 1392 1391 1390 1388 1387 1386 1384 1383 1382 1381 1379 1378 1377 1376 1375 1373 1372 1372 1371 1371 1370 1370 1369 1369 1369 1369 1369 1369 1370 1370 1370 1370 1370 1370 1370 1370 1370 1370 1370
1421 1421 1421 1421 1420 1420 1420 1419 1419 1418 1418 1418 1417 1417 1416 1416 1415 1414 1413 1413 1412 1411 1410 1410 1409 1409 1408 1408 1407 1406 1406 1405 1404 1403 1402 1401 1400 1399 1398 1397 1397 1396 1395 1394 1393 1391 1390 1389 1387 1386 1385 1384 1382 1381 1380 1378 1377 1376 1375 1374 1372 1372 1371 1370 1369 1369 1368 1368 1368 1367 1367 1367 1367 1367 1367 1367 1367 1367 1368 1368 1368 1368 1368 1368 1367
1419 1419 1419 1418 1418 1418 1417 1417 1416 1416 1415 1415 1414 1414 1413 1413 1412 1411 1411 1410 1410 1409 1408 1407 1407 1406 1406 1405 1404 1404 1403 1402 1401 1400 1399 1399 1398 1397 1396 1395 1394 1393 1392 1391 1390 1389 1388 1387 1385 1384 1383 1382 1380 1379 1378 1376 1375 1374 1372 1371 1371 1370 1369 1368 1368 1367 1366 1366 1366 1365 1365 1365 1365 1365 1365 1365 1365 1365 1365 1366 1366 1366 1365 1365 1365